Regional Weather Roundup
Issued by NWS Portland, ME

Current Version | Previous Version | Text Only | Print | Product List | Glossary Off
Versions: 1 2 3 4 5 6 7 8 9 10 11 12 13 14 15 16 17 18 19 20 21 22 23 24 25 26 27 28 29 30 31 32 33 34 35 36 37 38 39 40 41 42 43 44 45 46 47 48 49 50
000 ASUS41 KGYX 211510 RWRGYX WEATHER ROUNDUP FOR MAINE AND NEW HAMPSHIRE NATIONAL WEATHER SERVICE GRAY ME 1100 AM EDT TUE AUG 21 2018 MEZ002-005-006-010-012-015-018-020-021-024-026-027-029-211600- MAINE CITY SKY/WX TMP DP RH WIND PRES REMARKS PORTLAND FAIR 70 58 65 E6 30.15F SANFORD FAIR 71 59 65 E5 30.15F BAR HARBOR FAIR 69 58 67 SE5 30.16F WISCASSET FAIR 72 58 61 VRB6 30.15F ROCKLAND FAIR 69 59 70 E8 30.15F FRYEBURG FAIR 70 60 70 VRB3 30.14F LEWISTONAUBURN N/A 71 60 68 VRB3 30.14F AUGUSTA FAIR 72 59 63 VRB6 30.15F WATERVILLE FAIR 70 58 65 CALM 30.12F BANGOR PTSUNNY 73 56 54 CALM 30.15F GREENVILLE N/A 69 56 62 VRB3 30.13F MILLINOCKET FAIR 71 58 63 VRB6 30.15F HOULTON FAIR 71 59 65 VRB5 30.13F PRESQUE ISLE FAIR 72 56 57 S12 30.13F FRENCHVILLE FAIR 71 58 63 SE9 30.12F CARIBOU FAIR 73 56 54 S8 30.12F $$ NHZ002-005-008-009-011-012-014-211600- NEW HAMPSHIRE CITY SKY/WX TMP DP RH WIND PRES REMARKS PORTSMOUTH PTSUNNY 70 59 68 N3 30.13F ROCHESTER PTSUNNY 72 60 66 SE9 30.14F NASHUA CLOUDY 68 61 78 CALM 30.15F MANCHESTER CLOUDY 68 59 73 SW3 30.13F CONCORD FAIR 67 60 78 MISG 30.15F LACONIA PTSUNNY 67 61 81 NE5 30.14F PLYMOUTH FAIR 70 57 63 CALM 30.12F BERLIN FAIR 69 60 73 VRB3 30.13F WHITEFIELD FAIR 73 57 57 CALM 30.11F JAFFREY CLOUDY 66 59 78 VRB5 30.16F KEENE FAIR N/A N/A N/A CALM 30.13F LEBANON FAIR 68 58 70 W5 30.12F MT WASHINGTON PTSUNNY 55 45 67 S14 N/A $$ VTZ005-007-008-211600- VERMONT CITY SKY/WX TMP DP RH WIND PRES REMARKS ST JOHNSBURY N/A 69 58 67 MISG 30.10F MONTPELIER FAIR 69 57 65 S14 30.15F BURLINGTON PTSUNNY 75 56 51 S14 30.06F $$ MAZ007-012-024-CTZ003-RIZ002-NYZ038-NYZ072-211600- SOUTHERN NEW ENGLAND AND NY CITY SKY/WX TMP DP RH WIND PRES REMARKS BOSTON CLOUDY 71 63 75 E12 30.13F WORCESTER CLOUDY 65 58 78 CALM 30.15S NANTUCKET CLOUDY 69 66 90 NE14 30.10F PROVIDENCE CLOUDY 71 62 73 E7 30.12F HARTFORD PTSUNNY 69 60 73 VRB3 30.13S ALBANY FAIR 74 58 57 S10 30.08F NEW YORK CITY PTSUNNY 75 61 61 CALM 30.09F $$ ANZ081-ANZ082-ANZ150-NHZ014-MEZ023>029-211600- COASTAL MARINE OBSERVATIONS STATION/POSITION TIME TEMP WIND PRES WAVE AIR SEA DIR/SP/G HT/PER (UTC) (F) (DEG/KT/KT) (MB) (FT/S) MOUNT DESERT ROC 1500 59 20/ 10/ 10 1021.4F MATINICUS ROCK 1400 59 60/ 7/ 7 1021.4R ISLE OF SHOALS 1400 64 10/ 5/ 6 1020.4F JEFFREYS LEDGE 1436 69 N/A 4/ 9 $$ .............KEY.............. WCI - WIND CHILL TC - TEMPERATURE IN CELSIUS VSB - VISIBILITY IN MILES HX - HEAT INDEX FAIR- INDICATES FEW OR NO CLOUDS BELOW 12,000 FT, WITH NO SIGNIFICANT WEATHER AND/OR OBSTRUCTIONS TO VISIBILITY.

USA.gov is the U.S. government's official web portal to all federal, state and local government web resources and services.